This is the latest recevied weather packets stored in our database for station/object WX7FGZ-5. If no packets are shown the sender has not sent any weather packets the latest 1 day(s).
| Time | Temp. | Humidity | Pressure | Rain* | Wind** | Luminosity | Snow |
|---|---|---|---|---|---|---|---|
| 1777970703 | 4.44° C | 59% | 1017.6 hPa | 0 mm | 0 m/s | 0 W/m² | - |
| 1777970105 | 4.44° C | 59% | 1017.7 hPa | 0 mm | 0 m/s | 0 W/m² | - |
| 1777970008 | 4.44° C | 59% | 1017.7 hPa | 0 mm | 0.45 m/s, 203° | 0 W/m² | - |
| 1777969803 | 4.44° C | 59% | 1017.7 hPa | 0 mm | 0.45 m/s, 203° | 0 W/m² | - |
| 1777969505 | 4.44° C | 58% | 1017.6 hPa | 0 mm | 0.89 m/s, 199° | 0 W/m² | - |
| 1777968603 | 4.44° C | 55% | 1017.6 hPa | 0 mm | 2.24 m/s, 194° | 0 W/m² | - |
| 1777965225 | 5.56° C | 54% | 1018.6 hPa | 0 mm | 1.79 m/s, 193° | 0 W/m² | - |
| 1777965016 | 5.56° C | 54% | 1018.6 hPa | 0 mm | 1.79 m/s, 193° | 0 W/m² | - |
| 1777964893 | 5.56° C | 53% | 1018.5 hPa | 0 mm | 1.79 m/s, 177° | 0 W/m² | - |
| 1777964709 | 5.56° C | 53% | 1018.5 hPa | 0 mm | 1.79 m/s, 177° | 0 W/m² | - |
| 1777964122 | 6.11° C | 54% | 1018.5 hPa | 0 mm | 1.79 m/s, 183° | 0 W/m² | - |
| 1777963762 | 6.11° C | 54% | 1018.7 hPa | 0 mm | 2.24 m/s, 184° | 0 W/m² | - |
| 1777963503 | 6.11° C | 54% | 1018.7 hPa | 0 mm | 2.24 m/s, 184° | 0 W/m² | - |
| 1777963101 | 6.11° C | 54% | 1018.6 hPa | 0 mm | 0.89 m/s, 174° | 0 W/m² | - |
| 1777962902 | 6.11° C | 54% | 1018.6 hPa | 0 mm | 0.89 m/s, 174° | 0 W/m² | - |
| 1777962549 | 6.67° C | 53% | 1018.6 hPa | 0 mm | 2.68 m/s, 173° | 0 W/m² | - |
| 1777962302 | 6.67° C | 53% | 1018.6 hPa | 0 mm | 2.68 m/s, 173° | 0 W/m² | - |
| 1777962209 | 6.67° C | 53% | 1018.6 hPa | 0 mm | 4.02 m/s, 178° | 0 W/m² | - |
| 1777962002 | 6.67° C | 53% | 1018.6 hPa | 0 mm | 4.02 m/s, 178° | 0 W/m² | - |
| 1777961960 | 6.67° C | 52% | 1018.6 hPa | 0 mm | 4.47 m/s, 177° | 0 W/m² | - |
| 1777961702 | 6.67° C | 52% | 1018.6 hPa | 0 mm | 4.47 m/s, 177° | 0 W/m² | - |
| 1777961642 | 6.67° C | 52% | 1018.7 hPa | 0 mm | 3.13 m/s, 189° | 0 W/m² | - |
| 1777961404 | 6.67° C | 52% | 1018.7 hPa | 0 mm | 3.13 m/s, 189° | 0 W/m² | - |
| 1777960803 | 6.67° C | 49% | 1018.6 hPa | 0 mm | 1.79 m/s, 172° | 0 W/m² | - |
| 1777960502 | 6.67° C | 49% | 1018.6 hPa | 0 mm | 3.13 m/s, 192° | 0 W/m² | - |
* Rain latest hour (hover to see other rain measurements)
** Current wind speed in m/s (hover to see current wind gust speed)